Find Starlink 34568

NORAD ID: 64717 Int'l Des: 2025-142 Owner: SPXS Country: US Constellation: starlink operational
LEOCIRCULAR

Live Position

Loading 3D Globe...

About Starlink 34568

Description loading...

Upcoming Passes

Passes for default location (London). Set your location on the main map for personalized predictions.

Altitude History

Loading altitude history...

Two-Line Element Set

1 64717U 25142X 26107.03443037 .00001159 00000-0 10494-3 0 9996
2 64717 70.0010 217.8047 0003330 268.6051 91.4727 14.98325157 45230
Epoch: Apr 17, 2026 • Age: 16 hours

Current Status

Altitude 593.2 km
Velocity 7.56 km/s
Sub-Earth Point -62.31°S, 11.42°W
Launch Date Jun 28, 2025
Age 0.7 years
Type internet

Technical Details

Classification Payload
Mass 575.00 kg
Dry Mass 530.00 kg
Total Mass 575.00 kg
Length 0.30 m
Diameter 4.10 m
Span 29.00 m
Shape Box + pan
Manufacturer SPXS
Bus Type Starlink V2MO
Phase Status In Orbit
Owner/State SPXS/US

Most Searched